x

Boston 16 Nm East Of Boston, Ma (44013) Wave Buoy

5:50am - Sat 10th Dec 2016 All times are EST. -5 hours from GMT.

  • Sig Wave height 3.0ft
  • Swell Direction
  • Peak Period 4s
  • Average Period 4s
  • Wind
    22mph, 34mph gusts
  • Sea Temp 49°f
  • Air Temp 25°f
  • Sea Pressure 1023.1mb
  • Boston 16 Nm East Of Boston, Ma
  • Boston 16 Nm East Of Boston, Ma

More Historic Weather Station data

Upgrade to MSW Pro to gain access to the past 30 days of data for over 8000 Wavebouys and Weather Stations around the globe.

Join Pro

Comparision Forecast

View Surf forecast
   
Sat 12/10 5:50am 3ft 4s 4s 22 34 mph 1023.1mb 49f 25f
4:50am 3.5ft 4s 4s 25 31 mph 1022.5mb 49f 26f
3:50am 3.5ft 4s 4s 27 36 mph 1022.1mb 49f 26f
2:50am 4.5ft 5s 4s 25 34 mph 1021.8mb 49f 27f
1:50am 3.5ft 5s 4s 25 31 mph 1021.5mb 49f 28f
12:50am 3.5ft 4s 4s 27 34 mph 1020.9mb 50f 28f
Fri 12/09 11:50pm 3.5ft 4s 4s 22 31 mph 1020.9mb 49f 29f
10:50pm 4ft 4s 4s 22 27 mph 1020.5mb 50f 30f
9:50pm 3.5ft 4s 4s 22 31 mph 1019.9mb 50f 31f
8:50pm 4ft 4s 4s 20 27 mph 1019.4mb 50f 31f
7:50pm 4.5ft 4s 4s 25 31 mph 1018.8mb 50f 32f
6:50pm 3.5ft 4s 4s 27 34 mph 1017.5mb 50f 33f
5:50pm 3.5ft 4s 4s 25 34 mph 1016.7mb 50f 34f
4:50pm 3.5ft 4s 4s 25 31 mph 1015.6mb 50f 35f
3:50pm 3ft 4s 4s 25 34 mph 1014.5mb 50f 36f
2:50pm 3.5ft 4s 4s 22 31 mph 1013.7mb 50f 36f
1:50pm 3ft 4s 4s 22 29 mph 1013mb 50f 36f
12:50pm 3ft 4s 4s 22 27 mph 1012.4mb 50f 36f
11:50am 3.5ft 4s 4s 22 27 mph 1012.8mb 50f 35f
10:50am 3.5ft 4s 4s 25 31 mph 1013mb 50f 35f
9:50am 2.5ft 4s 3s 22 29 mph 1013mb 50f 35f
8:50am 3.5ft 4s 4s 25 29 mph 1012.3mb 50f 35f
7:50am 3ft 4s 4s 27 36 mph 1011.1mb 50f 36f
6:50am 3.5ft 4s 4s 27 31 mph 1010.6mb 50f 36f
5:50am 3ft 4s 4s 25 29 mph 1009.8mb 50f 36f
4:50am 3ft 4s 4s 25 29 mph 1009.2mb 50f 36f
3:50am 3ft 4s 4s 22 34 mph 1009mb 50f 37f
2:50am 3.5ft 4s 4s 27 36 mph 1009.1mb 50f 37f
1:50am 3.5ft 4s 4s 27 36 mph 1008.8mb 50f 37f
12:50am 3.5ft 4s 4s 29 36 mph 1008.3mb 50f 37f
Thu 12/08 11:50pm 3.5ft 4s 4s 25 29 mph 1008.3mb 50f 38f
10:50pm 4ft 4s 4s 29 34 mph 1008.5mb 50f 39f
9:50pm 3.5ft 4s 4s 29 36 mph 1008mb 50f 40f
8:50pm 4ft 4s 4s 29 36 mph 1007.7mb 50f 40f
7:50pm 3ft 4s 4s 31 38 mph 1007.5mb 50f 42f
6:50pm 2.5ft 4s 4s 27 34 mph 1007.8mb 50f 42f
5:50pm 2.5ft 4s 4s 20 27 mph 1007.6mb 50f 43f
4:50pm 2.5ft 3s 4s 22 27 mph 1007.3mb 50f 43f
3:50pm 2ft 3s 4s 20 25 mph 1007.2mb 50f 43f
2:50pm 1.6ft 11s 4s 18 22 mph 1007.1mb 50f 43f
1:50pm 1.6ft 11s 4s 13 18 mph 1007.3mb 50f 43f
12:50pm 1.6ft 10s 5s 9 11 mph 1007.7mb 50f 44f
11:50am 1.3ft 11s 5s 11 13 mph 1009.3mb 50f 42f
10:50am 1.3ft 10s 4s 11 13 mph 1010.7mb 50f 42f
9:50am 1.3ft 11s 5s 11 13 mph 1012mb 50f 42f
8:50am 1.3ft 11s 5s 11 13 mph 1012.1mb 50f 42f
7:50am 1.3ft 11s 4s 9 11 mph 1012.1mb 50f 42f
6:50am 1.6ft 11s 4s 13 16 mph 1012.2mb 50f 42f
5:50am 1.6ft 11s 4s 13 16 mph 1012.5mb 50f 42f
4:50am 1.6ft 11s 4s 16 18 mph 1012.8mb 50f 42f
3:50am 1.6ft 9s 4s 13 18 mph 1012.6mb 50f 42f
2:50am 2ft 6s 4s 13 16 mph 1013.1mb 50f 42f
12:50am 1.6ft 11s 4s 13 16 mph 1013.7mb 50f 42f
Wed 12/07 11:50pm 1.6ft 11s 5s 9 13 mph 1013.8mb 50f 42f
10:50pm 1.6ft 10s 4s 11 13 mph 1014.2mb 50f 43f
9:50pm 1.6ft 10s 4s 13 16 mph 1014.5mb 50f 43f
8:50pm 1.6ft 10s 5s 11 13 mph 1014.7mb 50f 43f
7:50pm 1.6ft 9s 5s 13 16 mph 1014.6mb 50f 43f
6:50pm 2ft 4s 5s 9 13 mph 1014.8mb 50f 43f
5:50pm 2ft 4s 5s 7 9 mph 1014.5mb 50f 43f
4:50pm 2.5ft 5s 5s 7 9 mph 1014.2mb 50f 43f
3:50pm 2ft 4s 5s 11 13 mph 1013.4mb 50f 42f
2:50pm 2.5ft 4s 5s 7 9 mph 1012.9mb 50f 42f
1:50pm 2.5ft 4s 4s 2 4 mph 1012.8mb 50f 42f
12:50pm 2.5ft 11s 4s 7 9 mph 1013.3mb 50f 42f
11:50am 2.5ft 4s 4s 9 11 mph 1013.7mb 50f 41f
10:50am 2.5ft 4s 5s  -  2 mph 1014.3mb 50f 42f
9:50am 2.5ft 5s 5s 4
mph
1014.3mb 50f 42f
8:50am 2.5ft 4s 4s 4 7 mph 1014mb 50f 41f
7:50am 2.5ft 4s 4s 9 11 mph 1013.4mb 50f 42f
6:50am 2.5ft 4s 4s 13 18 mph 1012.4mb 50f 42f
5:50am 2.5ft 3s 4s 13 16 mph 1012.7mb 50f 42f
4:50am 2.5ft 11s 4s 16 20 mph 1011.5mb 50f 42f
3:50am 2.5ft 11s 4s 16 18 mph 1011.8mb 50f 42f
2:50am 2.5ft 10s 4s 16 20 mph 1012.6mb 50f 42f
1:50am 2.5ft 11s 4s 13 18 mph 1013mb 50f 42f
12:50am 2.5ft 5s 4s 16 18 mph 1012.8mb 51f 42f
Tue 12/06 11:50pm 2.5ft 5s 4s 13 16 mph 1014.1mb 51f 42f
10:50pm 2.5ft 5s 4s 11 13 mph 1014.8mb 51f 43f
9:50pm 2.5ft 6s 4s 11 13 mph 1015.3mb 51f 43f
8:50pm 2.5ft 6s 5s 11 13 mph 1015.7mb 51f 43f
7:50pm 2.5ft 6s 5s 13 18 mph 1015.1mb 50f 43f
6:50pm 2ft 11s 5s 9 11 mph 1015.4mb 50f 43f
5:50pm 2ft 11s 5s 11 13 mph 1015.3mb 50f 42f
3:50pm 2ft 11s 5s 4 9 mph 1016.3mb 50f 41f
2:50pm 2ft 10s 5s 4 7 mph 1016.7mb 50f 42f
1:50pm 2ft 11s 4s 9 11 mph 1017mb 50f 42f
12:50pm 2.5ft 10s 4s 7 11 mph 1017.3mb 50f 42f
11:50am 2.5ft 3s 4s 13 16 mph 1018mb 50f 42f